Overview Statistics Trail Chart Weather Telemetry Raw packets
 

This is the latest recevied weather packets stored in our database for station/object VE8SKI. If no packets are shown the sender has not sent any weather packets the latest 10 day(s).

<< 34 35 36 37 38 39 40 >>
Time Temp. Humidity Pressure Rain* Wind** Luminosity Snow
1777870661 -0.56° C 79% 1023.1 hPa 0 mm 0.45 m/s, 44° - -
1777870358 -0.56° C 79% 1023.1 hPa 0 mm 0.89 m/s, 44° - -
1777870059 0° C 78% 1023 hPa 0 mm 0.89 m/s, 48° - -
1777869759 -0.56° C 78% 1023 hPa 0 mm 1.34 m/s, 35° - -
1777869459 0° C 78% 1023 hPa 0 mm 0.89 m/s, 65° - -
1777869159 0° C 78% 1022.9 hPa 0 mm 0.45 m/s, 65° - -
1777868860 0° C 78% 1022.9 hPa 0 mm 0.89 m/s, 32° - -
1777868557 0° C 78% 1022.8 hPa 0 mm 0.89 m/s, 21° - -
1777868257 0° C 78% 1022.7 hPa 0 mm 0.45 m/s, 23° - -
1777867957 0° C 77% 1022.7 hPa 0 mm 0.45 m/s, 27° - -
1777867658 0° C 77% 1022.7 hPa 0 mm 0.45 m/s, 28° - -
1777867358 0° C 77% 1022.5 hPa 0 mm 0.89 m/s, 28° - -
1777867058 0° C 77% 1022.5 hPa 0 mm 1.34 m/s, 48° - -
1777866756 0° C 76% 1022.4 hPa 0 mm 0.89 m/s, 37° - -
1777866456 0.56° C 76% 1022.3 hPa 0 mm 0.89 m/s, 84° - -
1777866156 0.56° C 76% 1022.3 hPa 0 mm 1.34 m/s, 51° - -
1777865857 0.56° C 76% 1022.2 hPa 0 mm 0.89 m/s, 58° - -
1777865557 0.56° C 76% 1022.2 hPa 0 mm 1.34 m/s, 15° - -
1777865257 0.56° C 75% 1022.1 hPa 0 mm 1.79 m/s, 59° - -
1777864955 0.56° C 75% 1022 hPa 0 mm 1.34 m/s, 56° - -
1777864655 0.56° C 74% 1022 hPa 0 mm 1.34 m/s, 65° - -
1777864056 1.11° C 72% 1021.9 hPa 0 mm 0.45 m/s, 38° - -
1777863756 1.11° C 72% 1021.9 hPa 0 mm 0.89 m/s, 63° - -
1777863457 1.11° C 72% 1021.9 hPa 0 mm 0 m/s - -
1777863154 1.11° C 72% 1021.8 hPa 0 mm 0.89 m/s, 65° - -

* Rain latest hour (hover to see other rain measurements)
** Current wind speed in m/s (hover to see current wind gust speed)